• In Hungary
  • List of Countries
  • For 7 days
  • Water Temperature
  • Satellite Maps
  • Weather Map
  • News
  • Weather Widgets
  • user-avatar
    Login

    Hourly Weather Liege

    Today, 21 September, Friday

    Time Temperature Precipitation Wind Pressure Humidity
    00:00 +20°C° 0 mm 5 mps 748 mmHg 59%
    01:00 +20°C° 0 mm 6 mps 747 mmHg 61%
    02:00 +20°C° 0 mm 6 mps 746 mmHg 62%
    03:00 +20°C° 0 mm 6 mps 746 mmHg 64%
    04:00 +20°C° 0.1 mm 7 mps 745 mmHg 65%
    05:00 +18°C° 0.1 mm 7 mps 745 mmHg 66%
    06:00 +18°C° 0.1 mm 8 mps 745 mmHg 67%
    07:00 +17°C° 1.5 mm 8 mps 746 mmHg 72%
    08:00 +16°C° 1.5 mm 7 mps 746 mmHg 77%
    09:00 +14°C° 1.5 mm 7 mps 747 mmHg 81%
    10:00 +15°C° 0.1 mm 7 mps 748 mmHg 71%
    11:00 +16°C° 0.1 mm 7 mps 749 mmHg 60%
    12:00 +17°C° 0.1 mm 7 mps 750 mmHg 50%
    13:00 +17°C° 0 mm 8 mps 750 mmHg 48%
    14:00 +17°C° 0 mm 8 mps 750 mmHg 47%
    15:00 +17°C° 0 mm 8 mps 751 mmHg 46%
    16:00 +15°C° 0 mm 7 mps 751 mmHg 50%
    17:00 +14°C° 0 mm 6 mps 752 mmHg 54%
    18:00 +13°C° 0 mm 5 mps 752 mmHg 58%
    19:00 +13°C° 0 mm 5 mps 753 mmHg 60%
    20:00 +11°C° 0 mm 6 mps 753 mmHg 63%
    21:00 +11°C° 0 mm 6 mps 754 mmHg 65%
    22:00 +11°C° 0 mm 6 mps 754 mmHg 67%
    23:00 +10°C° 0 mm 6 mps 754 mmHg 70%

    Tomorrow, 22 September, Saturday

    Time Temperature Precipitation Wind Pressure Humidity
    00:00 +10°C° 0 mm 5 mps 755 mmHg 72%
    01:00 +10°C° 0 mm 5 mps 755 mmHg 75%
    02:00 +10°C° 0 mm 5 mps 755 mmHg 77%
    03:00 +10°C° 0 mm 4 mps 756 mmHg 79%
    04:00 +10°C° 0 mm 4 mps 756 mmHg 80%
    05:00 +10°C° 0 mm 4 mps 756 mmHg 80%
    06:00 +10°C° 0 mm 4 mps 756 mmHg 81%
    07:00 +10°C° 0 mm 5 mps 757 mmHg 76%
    08:00 +13°C° 0 mm 5 mps 757 mmHg 72%
    09:00 +14°C° 0 mm 5 mps 757 mmHg 67%
    10:00 +15°C° 0.1 mm 5 mps 757 mmHg 63%
    11:00 +15°C° 0.1 mm 5 mps 757 mmHg 60%
    12:00 +16°C° 0.1 mm 5 mps 757 mmHg 57%
    13:00 +16°C° 0.1 mm 5 mps 757 mmHg 57%
    14:00 +17°C° 0.1 mm 4 mps 757 mmHg 57%
    15:00 +17°C° 0.1 mm 4 mps 757 mmHg 58%
    16:00 +16°C° 0 mm 3 mps 757 mmHg 62%
    17:00 +14°C° 0 mm 3 mps 757 mmHg 67%
    18:00 +14°C° 0 mm 2 mps 757 mmHg 72%
    19:00 +14°C° 0 mm 2 mps 757 mmHg 74%
    20:00 +13°C° 0 mm 2 mps 757 mmHg 76%
    21:00 +13°C° 0 mm 2 mps 757 mmHg 78%
    22:00 +13°C° 0.6 mm 2 mps 757 mmHg 82%
    23:00 +12°C° 0.6 mm 2 mps 756 mmHg 86%

    Day after tomorrow, 23 September, Sunday

    Time Temperature Precipitation Wind Pressure Humidity
    00:00 +12°C° 0.6 mm 2 mps 756 mmHg 91%
    01:00 +12°C° 0.8 mm 2 mps 755 mmHg 91%
    02:00 +11°C° 0.8 mm 3 mps 754 mmHg 91%
    03:00 +11°C° 0.8 mm 3 mps 754 mmHg 92%
    04:00 +11°C° 0.8 mm 3 mps 753 mmHg 92%
    05:00 +12°C° 0.8 mm 4 mps 752 mmHg 93%
    06:00 +12°C° 0.8 mm 4 mps 751 mmHg 93%
    07:00 +14°C° 0.8 mm 4 mps 751 mmHg 94%
    08:00 +15°C° 0.8 mm 4 mps 751 mmHg 94%
    09:00 +17°C° 0.8 mm 5 mps 751 mmHg 95%
    10:00 +19°C° 0.4 mm 6 mps 750 mmHg 94%
    11:00 +20°C° 0.4 mm 7 mps 750 mmHg 93%
    12:00 +21°C° 0.4 mm 8 mps 749 mmHg 91%
    13:00 +21°C° 0.1 mm 8 mps 749 mmHg 91%
    14:00 +21°C° 0.1 mm 8 mps 748 mmHg 90%
    15:00 +21°C° 0.1 mm 8 mps 747 mmHg 89%
    16:00 +19°C° 0.6 mm 9 mps 746 mmHg 89%
    17:00 +19°C° 0.6 mm 9 mps 745 mmHg 89%
    18:00 +19°C° 0.6 mm 10 mps 744 mmHg 89%
    19:00 +17°C° 1.5 mm 10 mps 745 mmHg 88%
    20:00 +16°C° 1.5 mm 10 mps 746 mmHg 87%
    21:00 +13°C° 1.5 mm 11 mps 747 mmHg 86%
    22:00 +11°C° 0.1 mm 9 mps 749 mmHg 86%
    23:00 +9°C° 0.1 mm 8 mps 751 mmHg 86%

    24 September, Monday

    Time Temperature Precipitation Wind Pressure Humidity
    00:00 +6°C° 0.1 mm 7 mps 754 mmHg 86%
    01:00 +7°C° 0 mm 5 mps 755 mmHg 87%
    02:00 +7°C° 0 mm 4 mps 757 mmHg 89%
    03:00 +7°C° 0 mm 3 mps 759 mmHg 90%
    04:00 +7°C° 0 mm 2 mps 760 mmHg 90%
    05:00 +7°C° 0 mm 2 mps 760 mmHg 90%
    06:00 +7°C° 0 mm 2 mps 761 mmHg 90%
    07:00 +9°C° 0 mm 2 mps 762 mmHg 80%
    08:00 +11°C° 0 mm 3 mps 763 mmHg 70%
    09:00 +13°C° 0 mm 4 mps 764 mmHg 60%
    10:00 +13°C° 0 mm 4 mps 764 mmHg 57%
    11:00 +14°C° 0 mm 4 mps 764 mmHg 54%
    12:00 +15°C° 0 mm 4 mps 765 mmHg 50%
    13:00 +15°C° 0 mm 4 mps 765 mmHg 51%
    14:00 +14°C° 0 mm 4 mps 765 mmHg 51%
    15:00 +14°C° 0 mm 4 mps 765 mmHg 52%
    16:00 +13°C° 0 mm 4 mps 766 mmHg 57%
    17:00 +11°C° 0 mm 3 mps 766 mmHg 63%
    18:00 +10°C° 0 mm 2 mps 767 mmHg 69%
    19:00 +9°C° 0 mm 2 mps 767 mmHg 72%
    20:00 +8°C° 0 mm 2 mps 768 mmHg 75%
    21:00 +7°C° 0 mm 2 mps 768 mmHg 77%
    22:00 +7°C° 0 mm 2 mps 769 mmHg 80%
    23:00 +7°C° 0 mm 2 mps 769 mmHg 82%

    25 September, Tuesday

    Time Temperature Precipitation Wind Pressure Humidity
    00:00 +7°C° 0 mm 1 mps 769 mmHg 85%
    01:00 +7°C° 0 mm 1 mps 769 mmHg 86%
    02:00 +7°C° 0 mm 1 mps 769 mmHg 88%
    03:00 +6°C° 0 mm 1 mps 770 mmHg 89%
    04:00 +6°C° 0 mm 1 mps 770 mmHg 89%
    05:00 +6°C° 0 mm 1 mps 770 mmHg 89%
    06:00 +6°C° 0 mm 1 mps 770 mmHg 89%
    07:00 +7°C° 0 mm 2 mps 770 mmHg 79%
    08:00 +10°C° 0 mm 3 mps 771 mmHg 69%
    09:00 +12°C° 0 mm 3 mps 771 mmHg 58%
    10:00 +13°C° 0 mm 3 mps 771 mmHg 54%
    11:00 +14°C° 0 mm 3 mps 770 mmHg 49%
    12:00 +16°C° 0 mm 3 mps 770 mmHg 45%
    13:00 +16°C° 0 mm 3 mps 770 mmHg 45%
    14:00 +16°C° 0 mm 3 mps 769 mmHg 45%
    15:00 +16°C° 0 mm 3 mps 769 mmHg 46%
    16:00 +13°C° 0 mm 3 mps 769 mmHg 52%
    17:00 +13°C° 0 mm 2 mps 769 mmHg 58%
    18:00 +10°C° 0 mm 2 mps 769 mmHg 64%
    19:00 +9°C° 0 mm 2 mps 769 mmHg 65%
    20:00 +9°C° 0 mm 2 mps 769 mmHg 66%
    21:00 +8°C° 0 mm 2 mps 770 mmHg 68%
    22:00 +7°C° 0 mm 2 mps 769 mmHg 67%
    23:00 +7°C° 0 mm 2 mps 769 mmHg 67%

    26 September, Wednesday

    Time Temperature Precipitation Wind Pressure Humidity
    00:00 +6°C° 0 mm 2 mps 769 mmHg 66%
    01:00 +6°C° 0 mm 2 mps 769 mmHg 66%
    02:00 +6°C° 0 mm 2 mps 769 mmHg 65%
    03:00 +6°C° 0 mm 2 mps 768 mmHg 65%
    04:00 +6°C° 0 mm 2 mps 768 mmHg 64%
    05:00 +5°C° 0 mm 2 mps 768 mmHg 64%
    06:00 +5°C° 0 mm 2 mps 768 mmHg 63%
    07:00 +8°C° 0 mm 2 mps 768 mmHg 57%
    08:00 +12°C° 0 mm 2 mps 768 mmHg 51%
    09:00 +14°C° 0 mm 2 mps 768 mmHg 45%
    10:00 +16°C° 0 mm 2 mps 768 mmHg 42%
    11:00 +18°C° 0 mm 2 mps 767 mmHg 39%
    12:00 +20°C° 0 mm 2 mps 767 mmHg 36%
    13:00 +20°C° 0 mm 2 mps 767 mmHg 38%
    14:00 +20°C° 0 mm 2 mps 766 mmHg 39%
    15:00 +21°C° 0 mm 2 mps 766 mmHg 41%
    16:00 +18°C° 0 mm 2 mps 766 mmHg 48%
    17:00 +16°C° 0 mm 2 mps 765 mmHg 54%
    18:00 +14°C° 0 mm 2 mps 765 mmHg 61%
    19:00 +13°C° 0 mm 2 mps 765 mmHg 62%
    20:00 +12°C° 0 mm 2 mps 765 mmHg 63%
    21:00 +10°C° 0 mm 2 mps 765 mmHg 64%
    22:00 +10°C° 0 mm 2 mps 765 mmHg 62%
    23:00 +9°C° 0 mm 2 mps 765 mmHg 60%
    Show more